Regional Weather Roundup
Issued by NWS

Home | Current Version | Previous Version | Text Only | Print | Product List | Glossary Off
Versions: 1 2 3 4 5 6 7 8 9 10 11 12 13 14 15 16 17 18 19 20 21 22 23 24 25 26 27 28

000
ASUS45 KCYS 201910
RWRWY

WYOMING REGIONAL WEATHER ROUNDUP
NATIONAL WEATHER SERVICE CHEYENNE WY
100 PM MDT THU JUL 20 2017

NOTE:  "FAIR" INDICATES FEW OR NO CLOUDS BELOW 12,000 FEET
WITH NO SIGNIFICANT WEATHER AND/OR OBSTRUCTIONS TO VISIBILITY.

WYZ001-202000-
YELLOWSTONE NATIONAL PARK

CITY           SKY/WX    TMP DP  RH WIND       PRES   REMARKS
LK YELLOWSTONE   N/A     62  52  69 CALM      30.36F
W YELLOWSTONE  NOT AVBL

$$
WYZ002>013-054>058-071-098>099-202000-
NORTHERN WYOMING

CITY           SKY/WX    TMP DP  RH WIND       PRES   REMARKS
JACKSON        SUNNY     82  52  34 S12G23    30.21
CODY             N/A     84  48  28 NW15G24   30.08R
GREYBULL       FAIR      95  50  21 S9        29.95F HX  92
WORLAND        NOT AVBL
SHERIDAN       NOT AVBL
BUFFALO        NOT AVBL
GILLETTE       NOT AVBL
HULETT         FAIR      93  54  26 SW16G24   30.04F HX  91
NEWCASTLE      FAIR      90  48  24 S17       30.08F

$$
WYZ014>020-022>026-101>103-202000-
CENTRAL WYOMING

CITY           SKY/WX    TMP DP  RH WIND       PRES   REMARKS
BIG PINEY      LGT RAIN  77  49  37 S9        30.28F
PINEDALE       FAIR      79  45  29 SE7       30.29F
DUBOIS         FAIR      81  37  21 W13G24    30.25F
LANDER         FAIR      87  52  29 NW10      30.11F
RIVERTON       FAIR      84  50  30 VRB3      30.12F
CASPER         FAIR      90  49  24 SW10      30.12F
DOUGLAS        FAIR      92  50  23 VRB5      30.11F

$$
WYZ021-027>030-104>119-202000-
SOUTHERN WYOMING

CITY           SKY/WX    TMP DP  RH WIND       PRES   REMARKS
EVANSTON       FAIR      82  49  31 SW14G22   30.30F
KEMMERER         N/A     81  43  26 SW8G17    30.30F
FORT BRIDGER   MOCLDY    83  46  27 SW12G18   30.32F
ROCK SPRINGS   FAIR      82  44  26 S7        30.27F
RAWLINS        FAIR      82  46  28 SW10      30.28F
SARATOGA       FAIR      82  45  26 SW12      30.32S
LARAMIE        FAIR      82  46  28 N7        30.31F
CHEYENNE       FAIR      85  50  29 VRB3      30.24F
TORRINGTON     FAIR      86  62  44 SE9       30.10F
PINE BLUFFS    FAIR      84  54  34 CALM      30.19F

$$




USA.gov is the U.S. government's official web portal to all federal, state and local government web resources and services.